Location: Regensburg
(48.4565°N, 10.3217°E)
Time: 19:11:59
(UTC+01:00)

ISS - Pass Details

Date: 09 January 2018
Orbit: 402 x 407 km, 51.6° (Epoch: 17 January)

Event Time Altitude Azimuth Distance (km) Brightness Sun altitude
Exits shadow 07:21:46 10° 288° (WNW) 1,465 -1.7 -7.6°
Maximum altitude 07:25:01 62° 208° (SSW) 464 -3.6 -7.2°
Drops below altitude 10° 07:28:16 10° 127° (SE) 1,464 0.7 -6.7°
Sets 07:30:21 0° 123° (ESE) 2,323 2.5 -6.4°
